User: anonymous   Login
Location: Smithers
(54.7670°N, 127.1670°W)
Time: 23:58:27
(UTC-07:00)
Language:

ERBS - Orbit

View from above orbital plane
View from above orbital plane
View from above satellite
View from above satellite

Ground track
Ground track

The orbit data is extracted from the following two-line orbital elements,

1 15354U 84108B   14298.52867485  .00016310  00000-0  55571-3 0  6228
2 15354 057.0124 304.8281 0021742 081.2667 279.0844 15.30377082649561
Epoch (UTC): 25 October 2014 12:41:17
Eccentricity: 0.0021742
inclination: 57.0124°
perigee height: 460 km
apogee height: 489 km
right ascension of ascending node: 304.8281°
argument of perigee: 81.2667°
revolutions per day: 15.30377082
mean anomaly at epoch: 279.0844°
orbit number at epoch: 64956

The dashed part of the orbit path shows where the satellite is in the earth's shadow,  

DLR